Regional Weather Roundup
Issued by NWS

Home | Current Version | Previous Version | Graphics & Text | Print | Product List | Glossary On
Versions: 1 2 3 4 5 6 7 8 9 10 11 12 13 14 15 16 17 18 19 20 21 22 23 24 25 26 27 28 29 30 31 32 33 34 35 36 37 38 39 40 41 42 43 44 45 46 47 48 49 50
000
ASUS44 KMEG 211210
RWRTN
TENNESSEE HOURLY STATE WEATHER ROUNDUP
NATIONAL WEATHER SERVICE MEMPHIS TN
600 AM CST SUN DEC 21 2014

TNZ002-004-019-021-049-052-054-088>092-211300-
WEST TENNESSEE

CITY           SKY/WX    TMP DP  RH WIND       PRES   REMARKS
MEMPHIS INTL   CLEAR     33  27  78 E5        30.20S WCI  29
NWS MEMPHIS      N/A     29 N/A N/A MISG        N/A
JACKSON        CLEAR     27  23  85 CALM      30.22R
DYERSBURG      CLEAR     28  16  59 E5        30.25R WCI  23
UNION CITY     CLEAR     23  23 100 CALM      30.23R
PARIS          CLEAR     25  21  86 NE5       30.23R WCI  19
HUNTINGDON     CLEAR     25  23  91 E3        30.22S
LEXINGTON      CLEAR     23  21  93 CALM      30.20S
SAVANNAH       CLEAR     23  23 100 CALM      30.22R
$$

TNZ008-025-027-028-033-062-065-066-211300-
NORTH MIDDLE TENNESSEE

CITY           SKY/WX    TMP DP  RH WIND       PRES   REMARKS
NASHVILLE      CLEAR     25  23  92 S3        30.25R
CLARKSVILLE    CLEAR     25  21  85 CALM      30.25R FOG
SMYRNA         CLEAR     24  21  88 CALM      30.26R FOG
COOKEVILLE     CLEAR     19  18  93 CALM      30.22R
CROSSVILLE     CLEAR     28  22  78 CALM      30.21R
$$

TNZ061-075-076-078-094-096-097-211300-
SOUTH MIDDLE TENNESSEE

CITY           SKY/WX    TMP DP  RH WIND       PRES   REMARKS
FAYETTEVILLE   CLEAR     27  25  93 N14G25    30.20R WCI  15
TULLAHOMA      CLEAR     25  21  86 CALM      30.20S
WINCHESTER     CLEAR     25  23  93 CALM      30.22R
MCMINNVILLE    CLEAR     25  25 100 CALM      30.22R
COLUMBIA       CLEAR    N/A N/A N/A CALM      30.21R
SHELBYVILLE    CLEAR     23  23 100 CALM      30.23S
$$

TNZ017-018-042-046-047-211300-
NORTHEAST TENNESSEE

CITY           SKY/WX    TMP DP  RH WIND       PRES   REMARKS
TRI CITIES     CLOUDY    37  36  96 CALM      30.24R FOG
ELIZABETHTON   CLOUDY    36  36 100 CALM      30.23R FOG
$$

TNZ012-013-036-069-073-074-211300-
CENTRAL EAST TENNESSEE

CITY           SKY/WX    TMP DP  RH WIND       PRES   REMARKS
KNOXVILLE      CLOUDY    39  30  70 NE6       30.23R WCI  35
OAK RIDGE      CLEAR     29  25  85 CALM      30.25S
GATLINBURG     CLOUDY    37  36  93 CALM      30.23R
MORRISTOWN     CLOUDY    37  36  93 CALM      30.23S
$$

TNZ083-085-099-211300-
SOUTHEAST TENNESSEE

CITY           SKY/WX    TMP DP  RH WIND       PRES   REMARKS
CHATTANOOGA    CLOUDY    34  32  92 CALM      30.24R
$$

SKY/WX REPORTED AS FAIR MEANS FEW OR NO CLOUDS BELOW
12 THOUSAND FEET.




USA.gov is the U.S. government's official web portal to all federal, state and local government web resources and services.